Weather in Tveri'a

Israel     32°46′57″N   35°31′34″E
В апреле 2022 года жителям России запретили посещать сайт meteo.paraplan.net по решению Генеральной прокуратуры. Аудитория сайта уменьшилась в 10 раз. Владельцы сайта не видят смысла в поддержке погодного сервера в таких условиях. Сайт будет закрыт в октябре.
temp.,
°C
wind,
m/s
gust,
m/s
humid.,
%
clouds,
%
prec.,
mm/h
press.,
hPa
HPBL,
m
4 october, tue
tue400:00+25wsw11790 0.0 100846
03:00+23wsw11810 0.0 100815
06:00+23w11820 0.0 100911
09:00+26nne11640 0.0 1010560
12:00+31se22420 0.0 10101289
15:00+33w33360 0.0 10091402
18:00+28w46560 0.0 1010472
21:00+26w23660 0.0 1012267
5 october, wed
wed500:00+24sw11710 0.0 101351
03:00+24wnw11720 0.0 101312
06:00+23w11750 0.0 101315
09:00+26wsw12570 0.0 1015577
12:00+32wsw23350 0.0 10141352
15:00+33wnw65330 0.0 10131355
18:00+28w46430 0.0 1013553
21:00+24wsw22650 0.0 101576
6 october, thu
thu600:00+22wsw11710 0.0 101522
03:00+21w11750 0.0 101515
06:00+20w11780 0.0 101512
09:00+24sse11620 0.0 1016518
12:00+30ene02330 0.0 10141281
15:00+31wnw65300 0.0 10121329
18:00+27w46440 0.0 1012560
21:00+23wsw22620 0.0 101367
7 october, fri
fri700:00+22w22690 0.0 101344
03:00+21w22730 0.0 101321
06:00+20wnw117541 0.0 101311
09:00+23sse025810 0.0 1014783
12:00+27w344492 0.0 10131931
15:00+28wnw67405 0.0 10111922
18:00+25wnw56450 0.0 10121162
21:00+22w22560 0.0 101348
8 october, sat
sat800:00+21w11640 0.0 101313
03:00+20w11680 0.0 101311
06:00+19nnw11690 0.0 101311
09:00+23se11571 0.0 1014603
12:00+27s3545100 0.0 10121844
15:00+28w664384 0.1 10111816
18:00+25wnw56550 0.0 1012924
21:00+22w23670 0.0 1013108